Weather History for Borden, ON

Change the Weather History Date:

Tuesday, August 27, 2013

  Actual Average Record
Temperature  
Mean Temperature 72 °F -  
Max Temperature 83 °F 70 °F 83 °F (2013)
Min Temperature 61 °F 48 °F 39 °F (2008)
Cooling Degree Days 7    
Growing Degree Days 22 (Base 50)    
Moisture  
Dew Point 64 °F    
Average Humidity 86    
Maximum Humidity 94    
Minimum Humidity 59    
Precipitation  
Precipitation 0.35 in - - ()
Sea Level Pressure  
Sea Level Pressure 29.92 in    
Wind  
Wind Speed 1 mph ()    
Max Wind Speed 8 mph    
Max Gust Speed -    
Visibility 3.4 miles    
Events Rain    
Averages and records for this station are not official NWS values.
T = Trace of Precipitation, MM = Missing Value Source: Averaged Metar Reports

Daily Weather History Graph

Daily Weather History Graph

Search for Another Location

Airport:

Trip Planner

Search our weather history database for the weather conditions in past years. The results will help you decide how hot, cold, wet, or windy it might be!

Date:

Astronomy

Aug. 27, 2013 Rise Set
Actual Time 6:37 AM EDT 8:04 PM EDT
Civil Twilight 6:06 AM EDT 8:34 PM EDT
Nautical Twilight 5:30 AM EDT 9:10 PM EDT
Astronomical Twilight 4:51 AM EDT 9:49 PM EDT
Moon 11:39 PM EDT 1:50 PM EDT
Length of Visible Light 14h 27m
Length of Day
13h 27m
Waning Gibbous, 57% of the Moon is Illuminated
Aug 27
Waning Gibbous
Aug 28
Last Quarter
Sep 5
New
Sep 12
First Quarter
Sep 19
Full

Hourly Weather History & Observations

Time (EDT) Temp. Heat Index Dew Point Humidity Pressure Visibility Wind Dir Wind Speed Gust Speed Precip Events Conditions
12:00 AM 62.6 °F - 60.8 °F 94% 29.94 in 0.4 mi Calm Calm - N/A   Clear
12:21 AM 64.4 °F - 62.6 °F 94% 29.94 in 0.1 mi Calm Calm - N/A   Clear
1:00 AM 62.6 °F - 60.8 °F 94% 29.96 in 0.1 mi NE 2.3 mph - N/A   Mostly Cloudy
1:04 AM 62.6 °F - 60.8 °F 94% 29.96 in 0.2 mi Calm Calm - N/A   Mostly Cloudy
1:06 AM 62.6 °F - 60.8 °F 94% 29.96 in 0.1 mi Calm Calm - N/A   Mostly Cloudy
2:00 AM 62 °F - 60 °F 90% 29.95 in 0 mi Calm Calm - -   Overcast
2:00 AM 62.6 °F - 60.8 °F 94% 29.95 in 0.1 mi Calm Calm - N/A   Overcast
2:36 AM 62.6 °F - 59.0 °F 88% 29.94 in 0.1 mi Calm Calm - N/A   Mostly Cloudy
2:46 AM 60.8 °F - 59.0 °F 94% 29.94 in 0.1 mi Calm Calm - N/A   Overcast
2:50 AM 62.6 °F - 59.0 °F 88% 29.94 in 0.1 mi Calm Calm - N/A   Mostly Cloudy
2:54 AM 62.6 °F - 59.0 °F 88% 29.93 in 0.5 mi Calm Calm - N/A   Mostly Cloudy
3:00 AM 62.6 °F - 60.8 °F 94% 29.93 in 0.6 mi Calm Calm - N/A   Overcast
3:03 AM 62.6 °F - 60.8 °F 94% 29.93 in 1.0 mi Calm Calm - N/A   Overcast
3:11 AM 62.6 °F - 60.8 °F 94% 29.93 in 3.0 mi Calm Calm - N/A   Overcast
4:00 AM 64.4 °F - 62.6 °F 94% 29.91 in 3.0 mi Calm Calm - N/A   Overcast
4:16 AM 64.4 °F - 62.6 °F 94% 29.91 in 2.4 mi Calm Calm - N/A   Overcast
4:21 AM 64.4 °F - 60.8 °F 88% 29.92 in 1.4 mi Calm Calm - N/A   Overcast
4:40 AM 64.4 °F - 60.8 °F 88% 29.93 in 1.5 mi SW 4.6 mph - N/A   Overcast
5:00 AM 64.4 °F - 60.8 °F 88% 29.93 in 2.5 mi SSW 4.6 mph - N/A   Scattered Clouds
5:18 AM 62.6 °F - 60.8 °F 94% 29.93 in 1.4 mi Calm Calm - N/A   Clear
5:38 AM 62.6 °F - 60.8 °F 94% 29.93 in 1.0 mi Calm Calm - N/A   Clear
5:39 AM 62.6 °F - 60.8 °F 94% 29.93 in 0.6 mi Calm Calm - N/A   Clear
5:42 AM 62.6 °F - 60.8 °F 94% 29.93 in 0.4 mi Calm Calm - N/A   Clear
6:00 AM 62.6 °F - 60.8 °F 94% 29.93 in 0.2 mi Calm Calm - N/A   Clear
6:17 AM 62.6 °F - 60.8 °F 94% 29.93 in 0.2 mi Calm Calm - N/A   Mostly Cloudy
6:23 AM 62.6 °F - 59.0 °F 88% 29.93 in 0.1 mi Calm Calm - N/A   Mostly Cloudy
6:35 AM 62.6 °F - 59.0 °F 88% 29.93 in 0.1 mi Calm Calm - N/A   Clear
6:39 AM 62.6 °F - 59.0 °F 88% 29.93 in 0.1 mi Calm Calm - N/A   Mostly Cloudy
6:41 AM 62.6 °F - 59.0 °F 88% 29.93 in 0.5 mi Calm Calm - N/A   Unknown
6:45 AM 62.6 °F - 59.0 °F 88% 29.93 in 1.5 mi South 2.3 mph - N/A   Unknown
6:50 AM 62.6 °F - 59.0 °F 88% 29.93 in 1.5 mi Calm Calm - N/A   Clear
6:54 AM 60.8 °F - 59.0 °F 94% 29.92 in 1.4 mi Calm Calm - N/A   Clear
6:59 AM 60.8 °F - 59.0 °F 94% 29.93 in 1.0 mi Calm Calm - N/A   Clear
7:00 AM 60.8 °F - 59.0 °F 94% 29.93 in 0.8 mi Calm Calm - N/A   Clear
7:11 AM 60.8 °F - 59.0 °F 94% 29.93 in 1.5 mi Calm Calm - N/A   Unknown
8:00 AM 66 °F - 63 °F 87% 29.94 in 2 mi Calm Calm - -  
8:00 AM 66.2 °F - 62.6 °F 88% 29.94 in 2.5 mi Calm Calm - N/A   Clear
8:02 AM 66.2 °F - 62.6 °F 88% 29.94 in 3.5 mi Calm Calm - N/A   Clear
9:00 AM 69.8 °F - 66.2 °F 88% 29.94 in 8.0 mi Calm Calm - N/A   Clear
10:00 AM 77.0 °F - 68.0 °F 74% 29.93 in 9.0 mi Calm Calm - N/A   Clear
11:00 AM 77.0 °F - 68.0 °F 74% 29.94 in 9.0 mi Calm Calm - N/A   Clear
12:00 PM 78.8 °F - 68.0 °F 69% 29.92 in 9.0 mi South 2.3 mph - N/A   Clear
1:00 PM 80.6 °F 83.2 °F 68.0 °F 65% 29.91 in 9.0 mi SSE 8.1 mph - N/A   Clear
2:00 PM 81 °F - 69 °F 59% 29.91 in 9 mi South 3.5 mph - -  
2:00 PM 80.6 °F 83.9 °F 69.8 °F 70% 29.91 in 9.0 mi SSE 4.6 mph - N/A   Clear
3:00 PM 82.4 °F 86.3 °F 69.8 °F 66% 29.88 in 9.0 mi ESE 5.8 mph - N/A   Clear
4:00 PM 82.4 °F 86.3 °F 69.8 °F 66% 29.87 in 9.0 mi ESE 5.8 mph - N/A   Scattered Clouds
4:48 PM 80.6 °F 83.9 °F 69.8 °F 70% 29.87 in 9.0 mi SSE 4.6 mph - N/A Rain Light Rain
4:50 PM 80.6 °F 83.9 °F 69.8 °F 70% 29.87 in 9.0 mi SSE 5.8 mph - N/A Rain Rain
4:51 PM 80.6 °F 83.9 °F 69.8 °F 70% 29.87 in 7.0 mi SSE 5.8 mph - N/A Rain Rain
5:00 PM 78.8 °F - 71.6 °F 78% 29.86 in 3.0 mi East 4.6 mph - N/A Rain Rain
5:12 PM 77.0 °F - 71.6 °F 83% 29.87 in 2.2 mi North 4.6 mph - N/A Rain Rain
5:16 PM 75.2 °F - 71.6 °F 89% 29.87 in 1.4 mi NW 4.6 mph - N/A Rain Heavy Rain
5:38 PM 75.2 °F - 68.0 °F 78% 29.88 in 3.0 mi Calm Calm - N/A Rain Rain
5:55 PM 71.6 °F - 66.2 °F 83% 29.88 in 1.4 mi North 6.9 mph - N/A Rain Heavy Rain
6:00 PM 71.6 °F - 66.2 °F 83% 29.88 in 1.4 mi NNE 4.6 mph - N/A Rain Heavy Rain
6:04 PM 71.6 °F - 66.2 °F 83% 29.88 in 2.5 mi NNE 5.8 mph - N/A Rain Rain
6:14 PM 71.6 °F - 68.0 °F 88% 29.88 in 9.0 mi North 3.5 mph - N/A Rain Light Rain
6:22 PM 71.6 °F - 68.0 °F 88% 29.89 in 9.0 mi NNE 2.3 mph - N/A   Mostly Cloudy
6:25 PM 71.6 °F - 68.0 °F 88% 29.89 in 9.0 mi NNE 2.3 mph - N/A   Scattered Clouds
7:00 PM 73.4 °F - 69.8 °F 88% 29.88 in 9.0 mi ENE 2.3 mph - N/A   Partly Cloudy
8:00 PM 72 °F - 69 °F 87% 29.89 in 9 mi Calm Calm - -  
8:00 PM 71.6 °F - 69.8 °F 94% 29.89 in 9.0 mi Calm Calm - N/A   Mostly Cloudy
9:00 PM 71.6 °F - 68.0 °F 88% 29.90 in 5.0 mi Calm Calm - N/A   Overcast
10:00 PM 71.6 °F - 68.0 °F 88% 29.91 in 9.0 mi Calm Calm - N/A   Overcast
11:00 PM 69.8 °F - 68.0 °F 94% 29.90 in 3.0 mi Calm Calm - N/A   Mostly Cloudy
11:55 PM 68.0 °F - 66.2 °F 94% 29.90 in 2.1 mi Calm Calm - N/A   Mostly Cloudy